Regional Weather Roundup
Issued by NWS

Home | Current Version | Previous Version | Text Only | Print | Product List | Glossary Off
Versions: 1 2 3 4 5 6 7 8 9 10 11 12 13 14 15 16 17 18 19 20 21 22 23 24 25 26 27 28 29 30 31 32 33 34 35 36 37 38 39 40 41 42 43 44 45 46 47 48 49 50

000
ASUS43 KMPX 280310
RWRMN
WEATHER ROUNDUP FOR MINNESOTA
NATIONAL WEATHER SERVICE TWIN CITIES/CHANHASSEN MN
900 PM CST THU NOV 27 2014


NOTE: "FAIR" INDICATES FEW OR NO CLOUDS BELOW 12,000 FEET WITH NO
SIGNIFICANT WEATHER AND/OR OBSTRUCTIONS TO VISIBILITY. N/A MEANS
CURRENT SKY AND/OR WEATHER CONDITIONS ARE NOT AVAILABLE.

MNZ060>063-068>070-280400-
   Twin Cities Metro

CITY           SKY/WX    TMP DP  RH WIND       PRES   REMARKS
TWIN CITIES    CLOUDY     6  -4  63 SE8       30.32F WCI  -7
ST PAUL        CLOUDY     8  -1  66 S7        30.34F WCI  -3
CRYSTAL        CLOUDY     9  -2  61 S6        30.31F WCI  -1
LAKEVILLE      CLOUDY     3  -4  72 S6        30.30F WCI  -8
EDEN PRAIRIE   CLOUDY     6  -3  66 S7        30.30F WCI  -6
SOUTH ST PAUL  CLOUDY     8  -2  64 S3        30.32F
LAKE ELMO      CLOUDY     9   1  72 S6        30.32F WCI  -1
$$
MNZ001>005-007-008-013>017-022>024-027-028-280400-
   Northwest Minnesota

CITY           SKY/WX    TMP DP  RH WIND       PRES   REMARKS
BEMIDJI        MOCLDY     6  -3  66 S7        30.19F WCI  -5
HALLOCK        MOCLDY     7   0  72 S12       30.17F WCI  -9
ROSEAU         CLOUDY     5  -2  72 CALM      30.20F
WARROAD        PTCLDY     3  -2  78 SE3       30.21S
THIEF RVR FALL CLOUDY     7   1  78 SE8       30.18F WCI  -6
CROOKSTON      LGT SNOW   9   3  78 S9        30.20F WCI  -5
FOSSTON        FLURRIES   7   0  72 SE6       30.19F WCI  -3
DETROIT LAKES  LGT SNOW   9   3  78 SE12      30.18F WCI  -6
MOORHEAD       LGT SNOW   9   5  85 SE12      30.20F WCI  -6
PARK RAPIDS    CLOUDY     6  -5  60 SE9       30.19S WCI  -8
MAHNOMEN       CLOUDY     9  -1  64 S6        30.18F WCI  -1
$$
MNZ006-009>011-018-025>026-280400-
   North Central Minnesota

CITY           SKY/WX    TMP DP  RH WIND       PRES   REMARKS
BAUDETTE       MOCLDY     2  -6  69 S5        30.19F WCI  -8
FLAG ISLAND    PTCLDY     3  -2  78 S13       30.19F WCI -14
INTL FALLS     PTCLDY     0  -7  72 SE5       30.22F WCI -10
WASKISH        MOCLDY     3  -2  78 CALM      30.21F
BIG FORK       PTCLDY     3  -4  72 CALM      30.23S
LONGVILLE      CLOUDY     7  -2  66 S6        30.23S WCI  -3
GRAND RAPIDS   CLOUDY     5  -4  66 S6        30.22R WCI  -6
CRANE LAKE     PTCLDY    -6  -8  92 CALM      30.27F
ORR            MOCLDY     0  -8  71 CALM      30.20F
COOK           PTCLDY    -2  -8  78 CALM      30.23F
WALKER         CLOUDY     6  -4  62 S5        30.21S WCI  -3
$$
MNZ012-019>021-037-280400-
   Northeast Minnesota

CITY           SKY/WX    TMP DP  RH WIND       PRES   REMARKS
DULUTH         PTCLDY     5  -6  60 CALM      30.22F
ELY            PTCLDY    -8 -11  84 CALM      30.23F
HIBBING        MOCLDY     3  -6  66 CALM      30.23F
EVELETH        PTCLDY     0  -4  85 CALM      30.24F
DULUTH HARBOR  MOCLDY     7  -2  66 CALM      30.32F
TWO HARBORS    PTCLDY     5  -4  66 NW3       30.25F
SILVER BAY     PTCLDY     1  -6  71 CALM      30.25F
GRAND MARAIS     N/A      7  -4  60 NW6       30.31F WCI  -3
G MARAIS ARPRT MOCLDY    -9 -15  77 NW3       30.18F
$$
MNZ029>031-032-039>041-046>048-054>057-064-280400-
   West Central Minnesota

CITY           SKY/WX    TMP DP  RH WIND       PRES   REMARKS
FERGUS FALLS   LGT SNOW   7   0  72 SE15      30.23F WCI -11
WHEATON        LGT SNOW   5   1  85 SE17      30.19F WCI -14
MORRIS         MOCLDY     7   0  72 SE18      30.19S WCI -12
ALEXANDRIA     FLURRIES   6  -2  69 SE10      30.21S WCI  -9
ELBOW LAKE     LGT SNOW   6   0  77 SE14      30.19F WCI -11
WADENA         CLOUDY     5  -4  66 S7        30.21F WCI  -7
GLENWOOD       LGT SNOW   5   0  78 SE9       30.22S WCI  -9
APPLETON       LGT SNOW   7   1  78 SE13      30.19F WCI  -9
BENSON         FLURRIES   5   0  78 S12       30.22S WCI -11
ORTONVILLE     LGT SNOW   7   1  78 SE16      30.15F WCI -11
MADISON        LGT SNOW  10   7  85 SE16      30.18F WCI  -7
WILLMAR        LGT SNOW   7  -2  66 SE12      30.25F WCI  -9
$$
MNZ033>034-036-042>043-049>051-058-059-280400-
   Central Minnesota

CITY           SKY/WX    TMP DP  RH WIND       PRES   REMARKS
ST CLOUD       CLOUDY     8  -4  58 S9        30.27F WCI  -5
SAUK CENTRE    FLURRIES   6  -2  70 SE7       30.24S WCI  -6
PAYNESVILLE    FLURRIES   3  -5  69 E9        30.25S WCI -11
AITKIN         MOCLDY     9   0  66 S3        30.23F
PINE RIVER     CLOUDY     5  -4  66 S6        30.26S WCI  -6
BRAINERD       CLOUDY     5  -4  66 S6        30.25S WCI  -6
STAPLES        CLOUDY     3  -6  66 S7        30.22F WCI  -9
LONG PRAIRIE   FLURRIES   5   0  78 SE6       30.24S WCI  -6
LITTLE FALLS   PTCLDY     9  -2  61 SE6       30.26S WCI  -1
LITCHFIELD     FLURRIES   7  -2  66 SE7       30.26F WCI  -5
BUFFALO        CLOUDY     7  -4  61 SE6       30.30F WCI  -4
MAPLE LAKE     CLOUDY     7   0  73 SE3       30.28F
$$
MNZ037-044-045-052-053-280400-
   East Central Minnesota

CITY           SKY/WX    TMP DP  RH WIND       PRES   REMARKS
PRINCETON      CLOUDY     9   0  66 CALM      30.28F
MORA             N/A    N/A N/A N/A MISG        N/A
CAMBRIDGE      CLOUDY    10  -2  56 S5        30.28F WCI   2
RUSH CITY      MOCLDY     7  -1  69 CALM      30.29F
MOOSE LAKE     MOCLDY     5  -4  66 S3        30.26F
HINCKLEY       FAIR       9   0  66 CALM      30.28F
CLOQUET        MOCLDY     3  -6  66 S3        30.24F
MCGREGOR       CLOUDY     9   0  66 S5        30.26S WCI   0
$$
MNZ071>073-080-081-089-090-097-098-280400-
   Southwest Minnesota

CITY           SKY/WX    TMP DP  RH WIND       PRES   REMARKS
MONTEVIDEO     LGT SNOW   5   1  85 S14       30.22F WCI -12
GRANITE FALLS  LGT SNOW   5   1  83 E13       30.23F WCI -12
CANBY          FLURRIES  12   8  83 SE12      30.16F WCI  -2
MARSHALL       CLOUDY    10   1  67 SE15      30.16F WCI  -6
REDWOOD FALLS  LGT SNOW   4  -1  80 SE14      30.25F WCI -14
OLIVIA         CLOUDY     5   0  78 SE10      30.25F WCI -10
PIPESTONE      MOCLDY    12   5  73 S13G22    30.10F WCI  -3
WINDOM         CLOUDY     7  -2  66 SE9       30.21F WCI  -7
WORTHINGTON    CLOUDY     9   1  72 SE13      30.17F WCI  -7
JACKSON        CLOUDY     9  -2  61 S12       30.22F WCI  -6
TRACY          CLOUDY    10   2  68 S14G20    30.18F WCI  -5
SLAYTON        CLOUDY    10   3  73 SE17      30.15F WCI  -8
$$
MNZ065>067-074>077-082>085-091>093-280400-
   South Central Minnesota

CITY           SKY/WX    TMP DP  RH WIND       PRES   REMARKS
MANKATO        CLOUDY     3  -6  66 S8        30.28F WCI -10
NEW ULM        LGT SNOW   1  -2  85 SE7       30.27F WCI -11
ST JAMES       CLOUDY     5  -2  72 SE10      30.27F WCI -10
FAIRMONT       CLOUDY     5  -2  72 S13       30.24F WCI -12
GLENCOE        CLOUDY     6  -2  70 SE7       30.29S WCI  -6
FARIBAULT      CLOUDY     5  -4  66 SE5       30.30F WCI  -4
OWATONNA       CLOUDY     5  -4  66 S7        30.28F WCI  -7
WASECA         CLOUDY     5  -6  61 SE8       30.30F WCI  -8
ALBERT LEA     CLOUDY     7   0  72 SE8       30.29S WCI  -6
$$
MNZ078>079-086>088-094>096-280400-
   Southeast Minnesota

CITY           SKY/WX    TMP DP  RH WIND       PRES   REMARKS
ROCHESTER      CLOUDY     5  -1  76 SE10      30.28F WCI -10
RED WING       CLOUDY     9  -2  61 CALM      30.34S
STANTON        CLOUDY     7  -2  67 SE5       30.30F WCI  -2
DODGE CENTER   CLOUDY     5   0  78 SE8       30.27F WCI  -8
WINONA         PTCLDY    10   3  72 CALM      30.38F
AUSTIN         CLOUDY     5  -2  72 S7        30.30S WCI  -7
PRESTON        MOCLDY     4  -1  77 SE5       30.30F WCI  -5
$$
ABBREVIATIONS USED IN REMARKS
   TC - TEMPERATURES IN CELSIUS
  WCI - WIND CHILL INDEX
   HX - HEAT INDEX
  VSB - VISIBILITY
$$


USA.gov is the U.S. government's official web portal to all federal, state and local government web resources and services.